Location: Ergnies
(50.0854°N, 2.0375°E)
Time: 10:22:51
(UTC+00:00)

Gblst 52 Del rocket - Pass Details

Date: 14 January 2026
Orbit: 805 x 1364 km, 51.5° (Epoch: 11 February)

Event Time Altitude Azimuth Distance (km) Brightness Sun altitude
Exits shadow 06:37:10 14° 285° (WNW) 2,138 5.6 -10.6°
Maximum altitude 06:41:53 60° 208° (SSW) 925 4.4 -9.9°
Drops below altitude 10° 06:47:26 10° 130° (SE) 2,461 8.0 -9.1°
Sets 06:50:01 0° 126° (SE) 3,448 9.3 -8.7°
